Regional Weather Roundup
Issued by NWS Grand Forks, ND

Home | Current Version | Previous Version | Graphics & Text | Print | Product List | Glossary On
Versions: 1 2 3 4 5 6 7 8 9 10 11 12 13 14 15 16 17 18 19 20 21 22 23 24 25 26 27 28 29 30 31 32 33 34 35 36 37 38 39 40 41 42 43 44 45 46 47 48 49 50
327
ASUS43 KFGF 200831
RWRFGF
PRAIRIE TO PINES  WEATHER ROUNDUP
NATIONAL WEATHER SERVICE EASTERN NORTH DAKOTA/GRAND FORKS ND
200 AM CST MON NOV 20 2017

 **SATELLITE DATA USED TO AUGMENT SKY COVER AT AUTOMATED STATIONS**
 *****  WEATHER ACROSS EASTERN NORTH DAKOTA  *****

CITY           SKY/WX    TMP DP  RH WIND       PRES   REMARKS
GRAND FORKS    FAIR      22  20  92 S10       29.58F WCI  11
GRAND FRKS AFB CLEAR     21  21  98 S10       29.57F WCI  10
GRAND FRKS NWS   N/A     25 N/A N/A S9          N/A  WCI  15
DEVILS LAKE    FAIR      25  22  88 SE8       29.51F WCI  16
FARGO          FAIR      28  21  75 SE6       29.63F WCI  22
WAHPETON ARPT  NOT AVBL
$$

 ***** WEATHER ACROSS CENTRAL AND WESTERN NORTH DAKOTA  *****

CITY           SKY/WX    TMP DP  RH WIND       PRES   REMARKS
BISMARCK       FAIR      27  21  78 CALM      29.56F
MINOT          FAIR      34  22  61 S14       29.44F WCI  25
JAMESTOWN      FAIR      24  20  84 S6        29.56F WCI  17
MINOT AFB      FAIR      35  23  61 SW7       29.42F
GARRISON         N/A     34  24  67 S5        29.50F
WILLISTON      FAIR      28  22  78 S3        29.47F
DICKINSON      FAIR      39  21  48 SW15      29.50F
HETTINGER      FAIR      29  18  63 W6        29.58F WCI  23
$$

 *****  OTHER AIRPORT OBSERVATIONS IN OUR AREA  *****

CITY           SKY/WX    TMP DP  RH WIND       PRES   REMARKS
WALHALLA       FAIR      19  19 100 E6        29.52F WCI  11
GRAFTON AIRPOR NOT AVBL
VALLEY CITY AR NOT AVBL
CANDO          FAIR      23  23 100 S7        29.49F WCI  15
CAVALIER APRT  FAIR      18  18 100 SE6       29.54F FOG     WCI   9
GWINNER          N/A     27  23  86 SW9       29.61F WCI  17
SHEYENNE NWR     N/A     22  20  93 S3        29.95S
ROLLA          FAIR      25  21  86 S8        29.44F WCI  16
 ***** THE ABOVE OBSERVATIONS ARE NON NWS ARE NOT QUALITY
       CONTROLLED AND MAY MIS-REPORT RAIN FOR SNOW...
$$

  *****  WEATHER ACROSS NORTHERN MINNESOTA  *****

CITY           SKY/WX    TMP DP  RH WIND       PRES   REMARKS
FLAG ISLAND    FAIR      19  16  86 SE6       29.62F WCI  11
WARROAD        MOCLDY    19  16  86 SE3       29.62F
ROSEAU         FAIR      21  18  86 SE6       29.60F WCI  14
HALLOCK        FAIR      23  19  86 SE14      29.57F WCI  11
THF RVR FALLS  FAIR      20  18  92 SE7       29.62F WCI  11
BAUDETTE       FAIR      15  11  83 SE6       29.64F WCI   6
WASKISH        FAIR      18  16  93 CALM      29.64F
CROOKSTON      FAIR      21  19  93 S9        29.60F WCI  11
STEPHEN NDAWN    N/A     19  18  93 SE9         N/A  WCI   9
GREENBUSH NDAW   N/A     21  18  86 S7          N/A  WCI  13
$$
  *****  WEATHER ACROSS CENTRAL AND WEST MINNESOTA  *****

CITY           SKY/WX    TMP DP  RH WIND       PRES   REMARKS
FOSSTON        FAIR      21  19  93 S6        29.63F WCI  14
BEMIDJI        FAIR      15  12  88 CALM      29.64S
PARK RAPIDS    FAIR      24  20  84 S5        29.66F WCI  18
ELBOW LAKE     FAIR      28  24  83 E6        29.67F WCI  22
WADENA         FAIR      21  19  93 CALM      29.66F
DETROIT LAKES  FAIR      28  27  93 CALM      29.65F
MOORHEAD       FAIR      25  19  80 SE9       29.64F WCI  15
FERGUS FALLS   FAIR      27  21  80 SE8       29.68F WCI  18
MORRIS MN      FAIR      25  21  86 SE8       29.67F WCI  16
STAPLES        FAIR      21  19  93 CALM      29.67F
$$
  *****  WEATHER ELSEWHERE ACROSS MINNESOTA  *****

CITY           SKY/WX    TMP DP  RH WIND       PRES   REMARKS
DULUTH         FAIR      20  18  92 SE3       29.72R
INTRNTL FALLS  FAIR      14  10  84 SE5       29.67F WCI   6
ELY            FAIR      10   9  92 CALM      29.69F
CLOQUET        FAIR      21  16  79 CALM      29.72S
WHEATON        FAIR      21  19  93 SE8       29.67F WCI  12
BRAINERD       FAIR      22  18  85 CALM      29.70F
HIBBING        FAIR      11   8  88 CALM      29.70F
ALEXANDRIA     FAIR      27  22  81 S3        29.69F
SAINT CLOUD    FAIR      22  21  96 SE5       29.73F WCI  16
MINNEAPOLIS    FAIR      35  27  72 S5        29.76F
$$

  *****  WEATHER ACROSS SOUTH DAKOTA  *****

CITY           SKY/WX    TMP DP  RH WIND       PRES   REMARKS
SIOUX FALLS    FAIR      30  23  75 S5        29.71F
BROOKINGS      FAIR      31  24  75 SE6       29.70F
WATERTOWN      FAIR      27  22  81 S7        29.67F WCI  19
HURON          FAIR      28  22  78 SE7       29.65F WCI  21
SISSETON         N/A     28  22  78 S7        29.65F WCI  21
ABERDEEN       FAIR      20  18  92 S7        29.65F WCI  11
MITCHELL       FAIR      29  23  78 S8        29.68F WCI  21
PIERRE         FAIR      29  20  69 S3        29.63F
MOBRIDGE       FAIR      31  26  82 SE6       29.58F
RAPID CITY     FAIR      29  16  58 CALM      29.65F
$$

  *****  SOME WEATHER IN NEARBY STATES *****

CITY           SKY/WX    TMP DP  RH WIND       PRES   REMARKS
GLASGOW MT     CLOUDY    47  18  31 W18G26    29.42F
GREAT FALLS MT FAIR      45  10  24 SW16      29.53R
CHEYENNE WY    FAIR      43   2  18 SW18G28   29.89F
SCOTTSBLUFF NE FAIR      45   9  23 W17       29.80F
OMAHA NE       FAIR      34  25  69 S9        29.85F
DES MOINES IA  FAIR      41  27  57 SW15      29.89F
DAVENPORT IA   FAIR      35  25  66 S10       29.99F
CHICAGO IL     FAIR      31  22  69 SW8       30.00F WCI  23
EAU CLAIRE WI  FAIR      21  18  88 CALM      29.78F
LA CROSSE WI   FAIR      35  26  69 S10       29.86R
$$

  *****  SOME NATIONAL WEATHER *****

CITY           SKY/WX    TMP DP  RH WIND       PRES   REMARKS
LA GUARDIA NY  CLOUDY    41  26  55 W14       29.87R
RALEIGH NC     FAIR      31  27  85 CALM      30.14R
ATLANTA GA     FAIR      36  28  73 NW13      30.16S
NEW ORLEANS LA FAIR      53  32  44 NE12G18   30.22S
OKLAHOMA CITY  FAIR      38  27  64 S12       30.11F
ALBUQUERQUE NM FAIR      34   8  33 N6        30.18S
SALT LAKE CITY FAIR      35  30  82 CALM      30.08F
LOS ANGELES CA FAIR      59  54  83 CALM      30.01R
BOISE ID       CLOUDY    39  28  64 CALM      29.98R
SEATTLE WA     LGT RAIN  44  42  93 SE8       29.60F FOG
$$

*** WEATHER ACROSS MANITOBA...SASKATCHEWAN AND ONTARIO ***
                ***ONTARIO***

CITY           SKY/WX    TMP DP  RH WIND       PRES   REMARKS
GERALDTON      FLURRIES   9   7  92 SW5       29.75R WCI   0
THUNDER BAY    CLEAR      7   5  92 NW3       29.80S
SIOUX LOOKOUT  MOCLDY     1  -2  85 VRB2      29.69F
TORONTO        MOCLDY    30  21  69 W18G24    29.89R WCI  18
BIG TROUT LK   CLEAR      3   1  92 W9        29.65S WCI -11
PICKLE LAKE    NOT AVBL
DRYDEN         CLOUDY    14  10  85 SE7       29.66F WCI   4
KENORA         PTCLDY    16  14  93 SE6       29.64F WCI   7
$$
                *** MANITOBA***

CITY           SKY/WX    TMP DP  RH WIND       PRES   REMARKS
BRANDON        MOCLDY    14  12  92 E7        29.41F WCI   4
DAUPHIN        CLOUDY    18  14  86 E2        29.43F
ISLAND LAKE    FLURRIES   3   0  85 S8        29.66  WCI -10
PILOT MOUND      N/A     23  19  86 S14         N/A  WCI  11
THE PAS        LGT SNOW  10   5  79 E12       29.46F WCI  -4
THOMPSON       CLOUDY     1  -2  85 VRB2      29.63F
WINNIPEG       MOCLDY    19  14  79 SE12      29.56F WCI   7
LYNN LAKE      CLOUDY    -6  -8  92 E6        29.55F WCI -18
CHURCHILL      FLURRIES  18  16  93 W8        29.57S WCI   7
GILLAM         FLURRIES   3  -2  78 NW13      29.62S WCI -14
$$
                ***SASKATCHEWAN***

CITY           SKY/WX    TMP DP  RH WIND       PRES   REMARKS
ESTEVAN        CLOUDY    32  23  69 SW12      29.39F WCI  23
KINDERSLEY     CLOUDY    34  28  80 W18G24    29.23S WCI  23
LLOYDMINSTER   MOCLDY    14  10  85 NW8       29.25R FOG     WCI   3
PRINCE ALBERT  CLOUDY    12   9  85 NE8       29.27R WCI   1
REGINA         CLOUDY    30  23  74 S18       29.29F WCI  18
YORKTON        CLOUDY    21  18  86 S9        29.28F WCI  11
N. BATTLEFORD  PTCLDY    12   9  85 S5        29.24R WCI   4
LA RONGE       FLURRIES  12   9  85 E8G17     29.35F WCI   1
SASKATOON      CLOUDY    14  12  92 SW3       29.23R
SWIFT CURRENT  CLEAR     39  23  52 W30G43    29.26S
$$
NOTE: THESE ARE AUTOMATED STATIONS WITH LIMITED QUALITY CONTROL
      "FAIR" INDICATES FEW OR NO CLOUDS BELOW 12,000 FEET WITH NO
      SIGNIFICANT WEATHER AND/OR OBSTRUCTIONS TO VISIBILITY.
      SKY/WX - SKY CONDITION AND SIGNIFICANT WEATHER.
      TMP - AIR TEMPERATURE.    DP   - DEWPOINT TEMPERATURE.
      RH  - RELATIVE HUMIDITY.  PRES - PRESSURE.
      HX  - HEAT INDEX.         WCI  - WIND CHILL INDEX.
$




USA.gov is the U.S. government's official web portal to all federal, state and local government web resources and services.